Weather History for PABR - June, 2013

Change the Weather History Date:

Thursday, June 13, 2013

  Actual Average Record
Temperature  
Mean Temperature 51 °F 35 °F  
Max Temperature 66 °F 40 °F 67 °F (1944)
Min Temperature 36 °F 31 °F 16 °F (1935)
Degree Days  
Heating Degree Days 14 30  
Month to date heating degree days 375 422  
Since 1 June heating degree days 375 422  
Since 1 July heating degree days 17810 18929  
Cooling Degree Days 0    
Month to date cooling degree days 0  
Year to date cooling degree days 0  
Since 1 June cooling degree days 0  
Moisture  
Dew Point 40 °F    
Average Humidity 0    
Maximum Humidity 0    
Minimum Humidity 0    
Precipitation  
Precipitation T in 0.01 in 0.33 in (1954)
Month to date precipitation 0.33 0.10  
Year to date precipitation 1.55 0.80  
Snow  
Snow 0.00 in 0.00 in 2.10 in (1954)
Month to date snowfall 0.2 0.5  
Since 1 June snowfall 0.2 0.5  
Since 1 July snowfall 62.7 37.5  
Snow Depth 0.00 in    
Sea Level Pressure  
Sea Level Pressure 30.08 in    
Wind  
Wind Speed 10 mph (SW)    
Max Wind Speed 21 mph    
Max Gust Speed 24 mph    
Visibility 7 miles    
Events Fog , Thunderstorm    
T = Trace of Precipitation, MM = Missing Value Source: NWS Daily Summary

Daily Weather History Graph

Daily Weather History Graph

Search for Another Location

Airport or City:

Trip Planner

Search our weather history database for the weather conditions in past years. The results will help you decide how hot, cold, wet, or windy it might be!

Date:

Astronomy

Dec. 31, 1969 Rise Set
Actual Time Sun does not set Sun does not set
Civil Twilight Sun does not set Sun does not set
Nautical Twilight Sun does not set Sun does not set
Astronomical Twilight Sun does not set Sun does not set
Moon 10:07 AM AKDT (6/13) 2:27 AM AKDT (6/13)
Length of Visible Light 24h 00m
Length of Day
24h 00m
Waxing Crescent, 23% of the Moon is Illuminated
Jun 13
Waxing Crescent
Jun 16
First Quarter
Jun 23
Full
Jun 29
Last Quarter
Jul 7
New

Hourly Weather History & Observations

Time (AKDT) Temp. Windchill Dew Point Humidity Pressure Visibility Wind Dir Wind Speed Gust Speed Precip Events Conditions
12:53 AM 37.0 °F 31.0 °F 33.1 °F 86% 30.13 in 10.0 mi WSW 8.1 mph - N/A   Clear
1:53 AM 37.0 °F 30.4 °F 33.1 °F 86% 30.14 in 10.0 mi WSW 9.2 mph - N/A   Clear
2:53 AM 37.0 °F 31.6 °F 33.1 °F 86% 30.14 in 10.0 mi WSW 6.9 mph - N/A   Clear
3:53 AM 37.0 °F 31.0 °F 33.1 °F 86% 30.13 in 10.0 mi WSW 8.1 mph - N/A   Clear
4:37 AM 35.6 °F 30.7 °F 33.8 °F 93% 30.13 in 0.5 mi WSW 5.8 mph - N/A Fog Fog
4:46 AM 35.6 °F 30.7 °F 33.8 °F 93% 30.13 in 1.0 mi West 5.8 mph - N/A   Clear
4:53 AM 36.0 °F 31.1 °F 33.1 °F 89% 30.13 in 3.0 mi West 5.8 mph - N/A   Clear
5:42 AM 37.4 °F 32.8 °F 33.8 °F 87% 30.13 in 4.0 mi West 5.8 mph - N/A   Scattered Clouds
5:49 AM 37.4 °F 32.8 °F 33.8 °F 87% 30.12 in 1.8 mi WSW 5.8 mph - N/A   Scattered Clouds
5:53 AM 37.0 °F 32.4 °F 34.0 °F 89% 30.13 in 1.2 mi WSW 5.8 mph - N/A   Scattered Clouds
5:58 AM 37.4 °F 32.8 °F 33.8 °F 87% 30.13 in 0.8 mi WSW 5.8 mph - N/A   Mist
6:07 AM 37.4 °F 32.8 °F 35.6 °F 93% 30.13 in 0.8 mi SW 5.8 mph - N/A   Scattered Clouds
6:31 AM 39.2 °F 35.0 °F 35.6 °F 87% 30.13 in 0.8 mi SW 5.8 mph - N/A   Mist
6:42 AM 39.2 °F 34.2 °F 35.6 °F 87% 30.13 in 0.8 mi SW 6.9 mph - N/A   Mostly Cloudy
6:53 AM 39.0 °F 34.8 °F 36.0 °F 89% 30.13 in 0.8 mi SW 5.8 mph - N/A   Mostly Cloudy
7:27 AM 39.2 °F 34.2 °F 37.4 °F 93% 30.13 in 2.5 mi SW 6.9 mph - N/A   Scattered Clouds
7:34 AM 41.0 °F 36.4 °F 37.4 °F 87% 30.13 in 10.0 mi SW 6.9 mph - N/A   Scattered Clouds
7:53 AM 42.1 °F 37.7 °F 39.0 °F 89% 30.13 in 10.0 mi SW 6.9 mph - N/A   Scattered Clouds
8:53 AM 43.0 °F 38.8 °F 37.9 °F 82% 30.12 in 10.0 mi WSW 6.9 mph - N/A   Clear
9:53 AM 46.9 °F - 39.9 °F 77% 30.12 in 10.0 mi WSW 6.9 mph - N/A   Clear
10:53 AM 46.9 °F - 39.0 °F 74% 30.12 in 10.0 mi WSW 9.2 mph - N/A   Clear
11:53 AM 50.0 °F - 39.9 °F 68% 30.12 in 10.0 mi WSW 8.1 mph - N/A   Clear
12:53 PM 53.1 °F - 41.0 °F 64% 30.10 in 10.0 mi West 4.6 mph - N/A   Scattered Clouds
1:53 PM 55.9 °F - 44.1 °F 64% 30.10 in 10.0 mi NE 6.9 mph - N/A   Scattered Clouds
2:53 PM 61.0 °F - 46.9 °F 60% 30.08 in 10.0 mi SE 9.2 mph - N/A   Clear
3:53 PM 62.1 °F - 48.9 °F 62% 30.05 in 10.0 mi SSE 13.8 mph - N/A   Mostly Cloudy
4:53 PM 64.9 °F - 50.0 °F 58% 30.03 in 10.0 mi ESE 16.1 mph - N/A   Mostly Cloudy
5:53 PM 64.9 °F - 50.0 °F 58% 30.01 in 10.0 mi SE 17.3 mph - N/A   Mostly Cloudy
6:53 PM 64.0 °F - 51.1 °F 63% 29.99 in 10.0 mi SE 18.4 mph - N/A   Mostly Cloudy
7:53 PM 64.0 °F - 51.1 °F 63% 29.97 in 10.0 mi SE 13.8 mph - N/A   Mostly Cloudy
8:53 PM 63.0 °F - 51.1 °F 65% 29.96 in 10.0 mi SSE 15.0 mph - N/A   Mostly Cloudy
9:53 PM 63.0 °F - 51.1 °F 65% 29.96 in 10.0 mi South 12.7 mph - N/A   Mostly Cloudy
10:53 PM 62.1 °F - 46.0 °F 56% 29.96 in 10.0 mi SW 6.9 mph - N/A   Mostly Cloudy
11:09 PM 60.8 °F - 44.6 °F 55% 29.96 in 10.0 mi SSW 15.0 mph 19.6 mph N/A Thunderstorm Thunderstorm
11:36 PM 55.4 °F - 42.8 °F 63% 29.95 in 10.0 mi WSW 11.5 mph - 0.00 in   Mostly Cloudy
11:53 PM 52.0 °F - 42.1 °F 69% 29.96 in 10.0 mi WSW 11.5 mph - 0.00 in   Mostly Cloudy